모두
Self Forward Landing Strip Airport (Leesville, LA) 19LA 기상
There is no TAF data available at 19LA or any nearby airports.
There is no METAR data available at 19LA. Showing METAR data for KDRI (23 mi 서남).
최근 DRI METAR 이력(19LA에 대한 데이터 없음)
| Date | Time (CDT) | Flight Rules | Wind Dir. | Speed | Type | Height AGL (ft) | Visibility | Temp (°C) | Temp (°F) | Dew Point (°C) | Dew Point (°F) | Rel. Humid. | Pressure | Density Altitude | Remarks |
|---|---|---|---|---|---|---|---|---|---|---|---|---|---|---|---|
| 05-5월 | 15:55 | VFR | 190° | 9 kt | 10 miles | 26° | 78° | 23° | 73° | 85% | 29.81 in Hg | 1,631 ft | |||
| 05-5월 | 15:35 | VFR | 190° | 10 kt | 10 miles | 26° | 78° | 23° | 73° | 85% | 29.81 in Hg | 1,631 ft | |||
| 05-5월 | 15:15 | VFR | 180° | 12 kt | 10 miles | 26° | 78° | 23° | 73° | 82% | 29.82 in Hg | 1,621 ft | |||
| 05-5월 | 14:55 | VFR | 200° | 9 kt | 10 miles | 26° | 78° | 23° | 73° | 84% | 29.82 in Hg | 1,621 ft | |||
| 05-5월 | 14:35 | VFR | 210° | 13 kt | 10 miles | 26° | 78° | 23° | 73° | 84% | 29.82 in Hg | 1,621 ft | |||
| 05-5월 | 14:15 | VFR | 190° | 10 kt | 10 miles | 26° | 78° | 23° | 73° | 85% | 29.83 in Hg | 1,611 ft | |||
| 05-5월 | 13:55 | VFR | 190° | 11 kt | 10 miles | 25° | 77° | 23° | 73° | 87% | 29.83 in Hg | 1,491 ft | |||
| 05-5월 | 13:35 | VFR | 200° | 9 kt | 10 miles | 25° | 77° | 23° | 73° | 87% | 29.83 in Hg | 1,491 ft | |||
| 05-5월 | 13:15 | VFR | 200° | 11 kt | 10 miles | 24° | 75° | 23° | 73° | 92% | 29.84 in Hg | 1,361 ft | |||
| 05-5월 | 12:55 | VFR | 200° | 10 kt | 10 miles | 25° | 77° | 22° | 71° | 83% | 29.84 in Hg | 1,481 ft | |||
| 05-5월 | 12:35 | VFR | 190° | 10 kt | 10 miles | 25° | 77° | 22° | 71° | 81% | 29.84 in Hg | 1,481 ft | |||
| 05-5월 | 12:15 | VFR | 190° | 12 kt | 10 miles | 26° | 78° | 22° | 71° | 80% | 29.84 in Hg | 1,601 ft | |||
| 05-5월 | 11:55 | VFR | 190° | 9 kt | 10 miles | 25° | 77° | 22° | 71° | 81% | 29.84 in Hg | 1,481 ft | |||
| 05-5월 | 11:35 | VFR | 200° | 10 kt | 10 miles | 25° | 77° | 22° | 71° | 82% | 29.84 in Hg | 1,481 ft | |||
| 05-5월 | 11:15 | VFR | 200° | 11 kt | 10 miles | 25° | 77° | 22° | 71° | 82% | 29.85 in Hg | 1,471 ft | |||
| 05-5월 | 10:55 | VFR | 180° | 11 kt | 10 miles | 25° | 77° | 22° | 71° | 80% | 29.84 in Hg | 1,481 ft | |||
| 05-5월 | 10:35 | VFR | 200° | 12 kt | 10 miles | 25° | 77° | 22° | 71° | 81% | 29.84 in Hg | 1,481 ft | |||
| 05-5월 | 10:15 | VFR | 180° | 10 kt | 10 miles | 24° | 75° | 21° | 69° | 84% | 29.84 in Hg | 1,361 ft | |||
| 05-5월 | 09:55 | VFR | 190° | 10 kt | 10 miles | 24° | 75° | 22° | 71° | 88% | 29.85 in Hg | 1,351 ft | |||
| 05-5월 | 09:35 | VFR | 190° | 8 kt | 10 miles | 23° | 73° | 21° | 69° | 89% | 29.85 in Hg | 1,231 ft | |||
| 05-5월 | 09:15 | VFR | 190° | 7 kt | 10 miles | 23° | 73° | 21° | 69° | 92% | 29.85 in Hg | 1,231 ft | |||
| 05-5월 | 08:55 | VFR | 180° | 9 kt | 10 miles | 22° | 71° | 21° | 69° | 92% | 29.84 in Hg | 1,121 ft | |||
| 05-5월 | 08:35 | VFR | 170° | 7 kt | 10 miles | 22° | 71° | 21° | 69° | 92% | 29.84 in Hg | 1,121 ft | |||
| 05-5월 | 08:15 | VFR | 160° | 7 kt | 10 miles | 21° | 69° | 20° | 68° | 94% | 29.83 in Hg | 1,011 ft |
로그인
| 귀하의 브라우저는 지원되지 않습니다.. 브라우저를 업그레이드하세요 |
